http://i.imgur.com/1N9jnup.gif   

       

Every day we have new matches from sure source! Odd over 4.00; maximum odd 30.00; 100% sure matches!

1 Week every day 2 matches Price:30 euro
2 Weeks 
every day 2 matches Price:50 euro
1 Month 
every day 2 matches Price:80 euro


After your payment inform us and check mail for 30 min to get a match.
Every interested persons who really want to cooperate with us let write to our e-mail:

Contact e-mail:calimero-tips1x2@hotmail.com

WhatsApp 

+38977699403

Payment methods:
Western Union or Moneygram 
 
DATE MATCH PICK ODD FT
01.12.2016 Crvena zvezda - Mladost X 5.25 2:2
Odd:12.0 Belgrano - Rosario 2 2.30 0:2
02.12.2016 A. Lustenau - Horn 2 6.00 2:3
Odd:15.6 Al-Ahli Manama - Al-Rifaa 2 2.60 0:1
03.12.2016 Cibalia - Lok. Zagreb 2 2.40 1:4
Odd:5.52 Bremen - Ingolstadt 1 2.30 2:1
04.12.2016 Al Nasr - Hatta 2 6.00 1:2
Odd:20.4 Hatayspor - Bugsasspor X 3.40 0:0
05.12.2016 La Coruna - Real Sociedad 1 3.25 5:1
Odd:6.50 Aalborg - Lyngby 1 2.00 1:0

 

DATE MATCH PICK FT ODD
01.11.2016 USM Alger - MC Alger 1 2:0 2.50
02.11.2016 Juventus - Lyon X 1:1 4.50
03.11.2016 Sparta Prag - H. Beer Sheva 1 2:0 2.60
04.11.2016 Kortrijk - Charleroi 1 2:1 2.50
05.11.2016 Freiburg - Wolfsburg 2 0:3 2.80
06.11.2016 KSV Roeselare - Antwerp 1 2:1 2.40
07.11.2016 Slavia Mozyr - Gorodeja X 3:3 3.20
08.11.2016 Sudtirol - Venezia 2 0:4 2.25
09.11.2016 San Martin Burzaco - Defensores Unidos 2 0:3 3.00
10.11.2016 Al Nasr - Dibba Al Fujairah X 0:0 5.00
11.11.2016 CRB - Paysandu 2 0:1 3.60
12.11.2016 alleres Remedios Escalada - Platense 2 0:1 3.20
13.11.2016 Peterborough - Bolton 1 1:0 2.88
14.11.2016 Koge - Hobro 1 1:0 2.70
15.11.2016 Fluminense - Atletico-PR X 1:1 3.60
16.11.2016 Goa - Mumbai City 1 0:0 2.40
17.11.2016 Vejle - Naestved 1 2:1 2.40
18.11.2016 Dordrecht - Helmond 2 1:4 2.90
19.11.2016 Rennes - Angers 1 1:1 2.30
20.11.2016 AC Milan - Inter 1 2:2 2.80
21.11.2016 Jong PSV - Graafschap 1 1:0 2.40
22.11.2016 Yeovil - Crawley Town cancel    
23.11.2016 Ludogorets - Basel 1 0:0 2.60
24.11.2016 FC Astana - APOEL 1 2:1 2.50
25.11.2016 Malkia - Al-Najma X 0:0 3.30
26.11.2016 Derby - Norwich 1 1:0 2.20
27.11.2016 Watford - Stoke 2 0:1 3.60
28.11.2016 Benfica B - Fafe 2 0:1 4.20
29.11.2016 Lorient - Rennes 1 2:1 2.60
30.11.2016 Guingamp - Nice 2 0:1 3.00

 

DATE MATCH PICK FT ODD
01.10.2016 Darmstadt – Bremen X 2:2 3.50
02.10.2016 Vizela – Penafiel 1 1:0 2.80
03.10.2016 Orgryte – AFC United 2 0:3 2.50
04.10.2016 Bromley – Woking X/1 1:1/2:1 6.00
05.10.2016 Tubize - Leuven 2 0:1 3.50
06.10.2016 Cercle Brugge - Lierse X 0:0 3.40
07.10.2016 Palestino - Everton 2 0:1 5.00
08.10.2016 Mansfield - Notts County 1 3:2 2.50
09.10.2016 Varnsdorf - Vlasim 2 0:1 3.80
10.10.2016 Deportivo Riestra - San Telmo 2 1:2 3.25
11.10.2016 Notts County - Morecambe 2 1:2 4.30
12.10.2016 Amstetten - Admira (Am) X 1:1 4.75
13.10.2016 Brown Adrogue - Chacarita Juniors 2 1:2 2.75
14.10.2016 Cardiff - Bristol City 1 2:1 2.60
15.10.2016 Lugo - Getafe 2 0:1 3.40
16.10.2016 Wolfsburg - RB Leipzig 2 0:1 4.00
17.10.2016 Liverpool - Manchester Utd X 0:0 3.40
18.10.2016 Lyon - Juventus X 0:1 3.70
19.10.2016 Celtic - Monchengladbach 2 0:2 2.50
20.10.2016 Krasnodar - Schalke 2 0:1 2.75
21.10.2016 A. Lustenau - Innsbruck X 2:2 3.60
22.10.2016 Hull - Stoke 2 0:2 2.65
23.10.2016 Chelsea - Manchester Utd 1 4:0 2.20
24.10.2016 Berazategui - Sportivo Barracas 1 1:0 3.10
25.10.2016 Genoa - AC Milan 1 3:0 2.70
26.10.2016 Manchester Utd - Manchester City 1 1:0 2.60
27.10.2016 Koge - Vejle 2 0:3 3.80
28.10.2016 Leganes - Real Sociedad 2 0:2 2.60
29.10.2016 Tenerife - Vallecano 1 3:2 2.40
30.10.2016 Široki Brijeg - Zeljeznicar 1 1:0 2.20
31.10.2016 Pirin Blagoevgrad - Vereya X 3.50 1:1

 

DATE MATCH PICK FT ODD
01.09.2016 Koge – Naestved X 2:2 3.40
02.09.2016 Sedan – Beziers 1 2:0 2.60
03.09.2016 Millwall – Bradford X 1:1 3.30
04.09.2016 Boiro – Osasuna B 2 0:2 3.10
05.09.2016 Siracusa – Foggia 1 1:2 2.00
06.09.2016 Altrincham – Chorley X 2:2 3.40
07.09.2016 Barracas Central – Almirante Brown X 1:1 3.10
08.09.2016 Sindri – Vestri 1 3:1 2.25
09.09.2016 Antwerp – Lierse 2 1:2 3.75
10.09.2016 Nautico – Bahia X 0:0 3.10
11.09.2016 Atalanta – Torino 1 2:1 2.50
12.09.2016 Orgryte – Varnamo X 2:2 3.60
13.09.2016 Preston – Cardiff 1 3:0 2.50
14.09.2016 Rotherham – Nottingham X 2:2 3.50
15.09.2016 Nykoping – Helsingor X 1:1 3.30
16.09.2016 Schwechat – Neusiedl 2 1:2 2.50
17.09.2016 Bristol City – Derby X 1:1 3.30
18.09.2016 Inter – Juventus X 2:1 3.40
19.09.2016 Asteras T. – PAOK 2 1:2 2.30
20.09.2016 St. Polten – Ried 1 2:1 2.75
21.09.2016 Bremen – Mainz 2 1:2 2.60
22.09.2016 Tenerife – Mallorca X 0:0 3.10
23.09.2016 Almere – Maasticht 1 2:1 2.50
24.09.2016 Prostejov – Vlasim 2 0:3 2.75
25.09.2016 Fiorentina – AC Milan X 0:0 3.25
26.09.2016 Ermis – Achnas X 2:1 3.75
27.09.2016 Wigan – Wolves 1 2:1 2.60
28.09.2016 ND Gorica – Koper X 1:1 3.20
29.09.2016 Genk – Sassuolo 1 3:1 2.80
30.09.2016 Neman – Slavia Mozyr 1 3:1 2.30

Vip matches are composed of the main sources of manipulated matches in Europe and in the world. If you cooperate with us your profit is guaranteed.VIP TICKET OFFER Sure 100 Matches Winning 1×2 People around the world want to work with us because they know that with us always they are 100% satisfied. Fortunately the work going on the right track and all of our customers are happy and completely trust us.


NEXT TICKET FOR: 09.12.2016 >>Friday<<
WE HAVE SURE TICKET 4 MATCHES
MATCHES ARE 
100% SAFE !!!

Price: One Tickets is 30 Euros
Price: Two Tickets is 50 Euros
Price: Six Tickets is 100 Euros

After your payment inform us and check mail for 30 min to get a VIP TICKET.
Every interested persons who really want to cooperate 
            with us let write to our e-mail:
Contact e-mail:calimero-tips1x2@hotmail.com

WhatsApp 

+38977699403

Payment methods:
Western Union or Moneygram 
DATE MATCH PICK ODD FT
02.12.2016 Wattens - FAC Wien 1 2.30 1:0
02.12.2016 Al-Hadd - Manama Club 2 2.90 0:1
02.12.2016 Lierse 2 Antwerp X 3.30 2:2
02.12.2016 Lok. Plovdiv - Cherno More 1 2.50 1:0
 
DATE MATCH PICK ODD FT
25.11.2016 Rennes - Toulouse 1 2.40 1:0
25.11.2016 Lok. Zagreb - Slaven Belupo 2 4.50 0:2
25.11.2016 Freiburg - RB Leipzig 2 2.20 1:4
25.11.2016 BW Linz - Wattens X 3.75 0:0
 
DATE MATCH PICK ODD FT
18.11.2016 Jihlava - Zlin 2 3.25 1:3
18.11.2016 Bielefeld - Heidenheim 2 2.75 2:1
18.11.2016 Auxerre - Lens 2 2.63 1:1
18.11.2016 Sedan - Quevilly Rouen 2 3.75 0:1
 
DATE MATCH PICK ODD FT
11.11.2016 Middlesbrough U23 - Charlton U23 1 2.75 1:0
11.11.2016 Hr. Dragovoljac - Lucko 2 6.00 1:2
11.11.2016 Goa - North East United 1 2.30 2:1
11.11.2016 Braunschweig II - Drochtersen/Assel 1 3.50 1:0

 

                  Page Redirection If you are not redirected automatically, follow the link to example                          

           

                   

     bANNER-EXPERT         

     

 

Free Tip 06.12.2016

Time:20:00 Doncaster Doncaster - Blackpool​ Blackpool Pick:1 Odd:1.91  FT-1:1

    

Free Tip 05.12.2016

Time:21:00 Middlesbrough Middlesbrough - Hull Hull Pick:1 Odd:1.80  FT-1:0

 
 


Create your free website at Beep.com
 
The responsible person for the content of this web site is solely
the webmaster of this website, approachable via this form!